Starlink 31686

operational
NORAD ID: 59579 Int'l Des: 2024-076 Owner: SPXS Country: US Constellation: starlink
LEOCIRCULAR

About Starlink 31686

Description loading...

Live Position

Loading 3D Globe...

Upcoming Passes

Altitude History

Altitude vs Time

uPlot chart will show altitude changes over time

Two-Line Element Set

1 59579U 24076R 25353.57416505 .00003092 00000-0 12187-3 0 9991
2 59579 42.9996 101.1315 0001560 253.8385 106.2295 15.27572194 94252
Epoch: Dec 19, 2025 • Age: 11 hours

Current Status

Altitude 483.1 km
Velocity 7.63 km/s
Sub-Earth Point -0.19°S, 1.98°W
Launch Date Apr 23, 2024
Age 1.6 years
Type internet

Technical Details

Classification Payload
Mass 730.00 kg
Dry Mass 700.00 kg
Total Mass 730.00 kg
Length 0.30 m
Diameter 4.10 m
Span 29.00 m
Shape Box + pan
Manufacturer SPXS
Bus Type Starlink V2M
Phase Status In Orbit
Owner/State SPXS/US

Large Constellations

Loading constellations...